Wind_Speed
7 6 5 6 4 5 6 3 2 12 5 11 12 5 4 11 3 1 11 18 11 9 5 5 9 7 8 6 6 7 7 7 7 8 9 9 9 8 7 6 7 8 8 6 6 6 7 7 7
7 5 5 3 5 4 2 2 9 5 8 11 11 14 10 3 19 3 14 17 11 12 10 4 3 2 2 3 5 6 6 9 9 9 9 10 10 9 8 8 7 8 9 6 7 8 8 7 7
8 7 5 3 3 4 4 4 6 13 14 12 4 7 5 10 11 9 14 12 10 7 10 5 6 4 2 4 8 10 7 10 11 10 10 10 11 11 10 9 9 9 11 12 8 7 4 6 6
8 3 1 4 2 5 5 4 12 9 6 12 5 5 8 12 8 14 15 10 11 9 12 13 19 10 7 3 7 11 10 12 14 13 12 12 13 12 11 11 11 12 15 14 9 6 3 5 7
6 2 3 2 3 3 6 13 12 6 7 13 9 7 6 15 16 20 16 9 12 13 13 13 12 10 8 8 6 11 11 14 13 13 14 14 14 14 13 13 13 15 17 13 8 9 8 7 7
6 2 4 2 2 4 7 12 10 11 11 13 7 8 6 14 20 21 17 9 8 10 15 14 13 12 8 8 10 8 8 11 13 13 15 15 16 16 16 16 15 18 13 9 10 10 9 9 8
3 4 1 1 4 4 3 9 8 5 9 7 11 5 2 20 20 20 18 12 12 12 14 14 13 11 11 11 10 11 10 11 11 11 13 16 17 18 18 18 17 15 10 10 10 10 9 8 8
4 3 2 3 2 2 1 4 6 7 3 11 8 3 7 21 17 14 16 15 11 11 10 15 12 15 15 15 13 18 17 10 12 11 12 14 22 21 20 21 17 14 10 11 10 10 9 8 8
3 4 2 3 4 2 10 6 8 11 8 12 7 13 14 16 16 16 17 16 14 11 11 11 13 12 15 18 17 15 17 25 8 3 8 19 2 24 19 15 15 12 12 12 11 10 9 8 8
4 3 3 3 3 3 7 11 13 6 11 10 13 13 16 17 15 16 19 22 20 15 9 9 11 13 12 15 14 17 12 14 17 13 29 32 21 11 21 21 14 13 13 13 13 10 7 6 7
6 3 2 7 6 6 8 10 14 11 4 1 5 11 17 17 16 17 18 19 20 18 15 11 11 10 9 10 12 10 6 7 16 20 27 22 20 14 7 14 14 14 13 11 9 7 6 7 8
3 4 3 3 5 4 5 9 13 10 8 1 3 6 10 14 17 18 19 21 23 21 17 13 12 13 13 10 8 9 9 9 11 11 8 9 11 14 23 4 13 11 11 9 8 6 6 7 8
1 5 6 6 8 7 9 8 8 19 19 9 6 8 8 11 15 17 18 20 22 21 18 16 12 13 13 10 8 7 8 7 6 7 7 4 7 6 12 10 9 9 8 8 6 6 7 7 9
3 7 13 10 9 5 4 7 5 4 5 6 5 6 5 9 12 17 21 23 24 22 20 17 15 11 13 13 9 10 9 7 2 4 10 10 2 7 2 15 12 12 9 8 7 6 7 8 9
4 4 7 8 9 3 4 6 5 13 8 5 3 5 6 9 13 16 20 23 23 20 20 16 15 12 10 13 11 12 11 7 4 5 8 14 4 5 6 3 7 15 15 9 6 5 6 7 9
2 3 5 5 8 2 5 7 5 2 5 6 5 3 5 7 12 17 21 20 20 19 17 15 13 13 9 10 10 12 10 10 8 7 8 7 8 8 9 4 3 12 12 11 9 3 5 7 7
5 1 2 5 0 2 2 7 7 7 12 12 7 0 3 5 13 18 20 20 19 19 17 14 11 10 7 5 8 9 11 12 11 8 7 9 10 6 5 7 4 7 5 5 9 10 5 5 6
1 3 5 4 3 3 6 11 7 20 20 21 7 2 5 7 12 17 20 19 18 17 14 12 10 6 4 5 7 9 12 14 13 12 11 13 12 11 9 8 8 12 14 6 14 17 9 6 6
1 1 3 5 8 5 5 8 11 20 22 11 9 6 9 9 9 15 17 17 16 14 14 14 10 3 3 7 6 8 8 12 10 10 11 13 17 12 12 13 13 8 12 9 14 19 15 10 7
3 3 6 7 4 7 10 16 17 18 16 12 11 11 7 5 10 13 15 16 15 15 12 11 11 6 3 2 4 5 7 6 5 5 6 10 14 17 15 13 11 8 9 8 10 14 16 13 10
3 3 4 5 6 5 8 7 6 4 15 17 12 9 7 7 9 11 13 16 15 15 15 12 10 7 4 6 5 6 7 8 6 5 5 6 10 11 12 13 11 8 8 10 15 12 11 12 13
2 4 4 6 6 2 6 5 6 6 5 6 6 7 5 2 5 6 10 14 17 18 16 11 9 7 5 3 2 3 5 6 6 6 4 6 7 9 10 10 8 7 10 13 16 17 16 15 12
2 3 4 3 2 4 5 2 7 3 2 3 8 10 7 1 1 4 8 12 15 17 19 19 14 9 8 8 5 3 1 1 4 5 5 6 7 8 8 8 7 7 8 14 18 18 17 15 11
3 3 5 1 2 3 5 3 5 3 4 3 7 11 8 4 2 3 6 9 12 14 17 19 20 21 19 14 11 10 6 5 4 2 3 3 5 6 7 7 7 8 9 12 15 13 14 13 11
5 5 4 6 4 5 3 3 7 4 4 5 7 10 10 6 5 2 3 6 9 12 14 16 17 19 20 20 20 18 13 9 8 8 4 3 1 0 2 4 6 5 7 9 11 11 12 13 13
1 5 4 4 3 7 2 5 4 0 5 7 4 11 8 7 5 3 2 2 6 9 11 13 15 16 18 18 19 18 17 17 14 10 8 5 1 2 3 2 1 2 4 6 9 11 12 12 11
2 1 2 3 0 3 4 5 5 4 3 3 2 6 7 6 6 5 3 2 4 7 9 11 12 14 15 16 16 17 16 15 15 13 10 4 1 1 1 4 3 5 5 6 7 9 13 15 16
3 1 3 3 2 5 5 9 5 4 6 6 6 9 9 10 10 8 8 5 5 7 8 10 11 13 15 15 15 15 16 16 16 14 12 11 9 6 3 5 5 9 8 7 8 8 10 11 10
3 2 1 2 3 4 3 7 1 6 6 7 14 16 16 14 18 14 11 8 6 7 7 7 9 12 14 14 14 14 14 14 15 16 16 15 13 10 8 4 4 8 7 6 8 9 9 8 9
3 5 5 4 5 4 3 18 9 5 6 16 20 20 20 16 18 14 11 11 9 5 6 9 12 12 11 12 12 11 12 14 15 15 16 16 16 15 12 10 7 6 7 6 7 8 10 12 11
Wind_Direction
17 38 37 2 54 68 25 36 100 32 35 18 12 16 319 59 9 307 346 351 352 335 283 284 206 174 157 210 212 217 216 208 205 203 199 205 198 196 199 189 184 183 179 175 161 143 134 126 116
37 52 37 338 83 66 344 8 43 40 17 25 16 350 350 50 24 18 351 355 349 329 319 301 240 233 235 262 248 221 234 232 218 214 212 211 209 211 209 203 196 190 180 169 152 142 134 125 119
65 39 3 70 79 131 151 48 36 17 9 355 348 339 26 338 16 349 343 339 340 325 323 303 323 334 28 261 230 235 239 246 237 226 217 217 219 220 218 211 202 191 182 161 148 122 110 129 123
26 39 320 84 144 5 108 60 45 6 346 45 20 43 79 25 11 345 337 333 335 340 316 314 304 296 286 298 269 242 228 244 240 235 229 226 228 227 221 212 204 193 185 177 159 156 164 153 135
7 357 57 12 5 90 68 59 42 358 21 44 61 333 86 22 7 8 359 354 335 344 329 324 303 325 285 281 260 250 234 233 234 240 239 235 234 228 223 214 205 204 195 180 167 166 162 151 142
349 36 45 76 43 102 53 39 63 19 40 22 21 353 86 15 351 357 1 4 344 326 341 343 330 314 312 290 273 268 258 254 254 244 246 245 237 225 221 215 210 199 174 170 169 163 161 157 154
20 69 213 88 349 52 51 28 58 6 353 353 342 348 336 22 3 354 354 348 334 325 334 344 339 327 301 296 296 286 270 248 247 264 265 257 239 219 221 217 205 191 169 171 169 165 164 160 157
21 84 344 16 66 69 358 37 34 37 329 328 332 328 2 355 350 349 341 340 339 318 331 339 342 336 323 307 298 291 279 254 248 236 242 228 237 231 224 222 203 192 173 172 169 169 169 167 169
11 61 20 17 55 336 19 21 354 344 345 331 49 39 7 344 325 326 316 322 332 3 327 334 328 335 327 320 335 324 268 294 327 283 24 357 158 225 224 215 202 175 176 176 177 177 176 178 183
53 85 57 7 61 1 6 8 343 350 336 333 334 321 333 344 344 336 328 330 330 338 347 332 329 314 329 332 344 350 341 320 296 315 318 327 315 130 204 211 189 175 175 178 182 183 183 183 175
350 99 29 46 56 21 344 329 334 347 328 10 11 335 329 336 335 339 336 336 336 332 337 313 314 307 298 314 336 336 335 334 274 284 293 314 306 332 111 175 166 174 176 184 185 191 188 182 172
40 15 76 348 34 2 316 312 316 291 285 266 5 349 342 329 334 335 328 330 330 331 329 323 314 304 300 300 310 315 329 347 320 340 334 303 294 272 298 148 155 170 175 178 183 188 182 177 171
45 354 348 331 300 282 278 279 278 281 282 273 317 329 334 328 329 323 317 314 317 320 324 318 314 308 294 297 287 293 305 326 341 11 20 27 218 283 255 208 150 177 172 171 173 175 176 175 171
302 319 296 288 266 270 278 283 325 247 237 277 335 330 334 340 328 309 312 318 319 317 313 318 308 306 290 282 269 269 278 292 310 60 63 59 209 154 334 240 188 180 174 163 159 171 178 176 171
304 327 319 260 227 216 349 324 235 283 252 299 344 328 327 337 315 326 324 323 324 320 314 313 308 296 288 280 268 258 266 254 194 160 97 79 104 186 344 208 311 214 178 155 150 167 172 176 171
319 31 358 329 125 118 86 277 317 243 291 288 273 311 347 347 333 325 330 332 330 326 320 316 308 301 294 299 277 257 256 247 216 203 163 134 115 104 80 96 5 14 215 196 149 161 189 177 170
9 313 275 328 166 141 171 271 281 285 292 277 267 285 36 351 334 336 337 337 335 335 330 320 307 302 325 296 298 254 256 248 248 226 218 209 195 198 154 109 120 58 166 288 214 217 233 194 173
353 3 337 318 315 273 253 269 276 290 300 276 241 174 88 27 3 338 337 339 341 343 340 331 311 292 280 282 288 266 256 245 239 240 231 232 232 222 205 196 213 219 184 219 203 193 190 215 198
60 19 265 262 278 308 252 277 289 287 293 244 221 117 78 48 8 337 345 349 350 351 352 1 0 7 264 248 278 263 261 247 236 237 236 225 230 238 236 225 236 220 208 205 183 169 172 188 182
27 320 302 297 336 349 306 298 281 287 281 253 143 95 65 10 344 353 358 3 6 5 7 14 10 356 263 238 226 263 272 269 263 239 232 233 228 227 231 232 225 215 211 202 185 193 187 207 189
321 289 312 273 333 325 331 319 341 353 75 85 84 80 62 19 357 2 11 19 20 21 20 18 11 2 306 272 292 277 269 269 258 247 238 234 232 228 225 228 221 216 201 197 190 194 190 197 191
313 345 352 352 22 300 56 288 314 303 87 95 118 136 134 348 353 11 24 36 41 43 39 35 21 15 3 338 294 267 247 250 262 255 237 220 223 223 219 213 218 205 201 196 207 195 203 218 214
212 322 288 255 298 9 321 52 275 340 28 202 198 167 155 190 55 56 48 52 52 52 52 52 51 42 35 45 62 93 113 209 245 250 248 220 215 212 199 202 206 217 222 202 218 223 221 205 192
332 335 320 63 82 32 259 146 280 286 276 283 203 181 174 181 145 91 74 63 57 55 56 56 57 59 56 55 57 57 73 85 88 114 226 230 221 210 199 185 190 207 216 221 224 212 206 195 209
45 43 343 358 4 228 211 348 245 237 293 323 241 193 179 175 182 184 113 73 57 49 46 47 47 49 50 54 56 56 54 52 57 85 92 32 14 19 216 189 188 196 210 217 211 205 208 214 216
201 133 149 235 276 279 256 247 266 187 341 353 311 202 182 176 201 228 185 56 36 37 35 33 35 39 39 39 43 47 49 48 45 42 30 55 266 28 352 8 301 195 208 218 215 207 212 214 218
306 97 189 109 334 22 258 310 319 328 347 348 134 180 197 222 234 236 244 294 353 5 17 23 25 27 29 29 29 29 31 37 42 39 40 20 291 237 198 243 256 276 254 236 234 236 231 237 246
108 267 34 3 346 297 289 307 256 326 304 294 278 246 244 252 216 225 244 270 333 347 0 7 14 16 15 12 12 13 13 14 16 19 24 24 21 2 327 298 275 250 252 241 236 242 253 247 255
33 25 10 179 171 205 268 273 198 25 28 347 317 279 254 245 227 230 239 266 320 340 349 2 4 2 355 352 353 354 358 359 359 357 360 4 9 8 2 328 278 268 252 252 252 239 243 262 261
109 164 157 145 256 229 216 275 295 62 5 354 333 321 289 257 228 222 229 262 282 328 348 343 344 337 334 339 343 346 344 347 349 348 350 350 352 357 355 349 337 297 280 259 248 248 240 243 253
Height
1525 1524 1523 1522 1533 1539 1546 1544 1533 1532 1532 1532 1531 1530 1532 1531 1533 1542 1533 1531 1528 1525 1515 1520 1521 1520 1520 1524 1524 1524 1524 1526 1527 1528 1530 1531 1531 1531 1532 1533 1533 1534 1533 1533 1534 1534 1535 1536 1537
1526 1525 1524 1524 1541 1553 1552 1540 1539 1536 1535 1533 1531 1529 1528 1533 1531 1532 1531 1531 1529 1527 1519 1521 1520 1521 1523 1521 1522 1524 1524 1526 1526 1527 1529 1530 1530 1530 1531 1532 1532 1533 1533 1533 1533 1533 1534 1535 1537
1527 1526 1527 1531 1541 1550 1548 1539 1538 1535 1534 1533 1532 1531 1531 1536 1535 1533 1534 1533 1531 1527 1524 1521 1523 1522 1520 1522 1524 1523 1523 1526 1526 1527 1527 1528 1529 1529 1529 1530 1531 1532 1533 1532 1532 1532 1534 1536 1537
1527 1528 1529 1539 1540 1537 1537 1538 1536 1536 1535 1535 1534 1535 1538 1539 1536 1534 1532 1530 1528 1527 1527 1521 1518 1521 1522 1521 1523 1524 1521 1522 1524 1525 1526 1526 1527 1527 1528 1528 1529 1529 1530 1531 1531 1531 1532 1536 1536
1529 1528 1537 1539 1535 1538 1536 1536 1536 1539 1538 1536 1535 1538 1540 1540 1537 1533 1530 1529 1527 1527 1524 1525 1522 1520 1522 1524 1521 1524 1521 1521 1523 1523 1523 1524 1524 1525 1525 1526 1527 1527 1528 1530 1530 1532 1533 1534 1536
1530 1532 1547 1550 1541 1538 1537 1538 1538 1540 1541 1539 1538 1538 1542 1541 1537 1534 1531 1529 1527 1525 1524 1524 1523 1519 1521 1521 1521 1522 1521 1520 1520 1521 1522 1522 1522 1522 1523 1523 1524 1524 1526 1528 1529 1531 1532 1533 1534
1535 1538 1546 1540 1542 1539 1539 1539 1541 1543 1542 1542 1542 1540 1542 1538 1537 1535 1531 1530 1529 1526 1525 1523 1522 1520 1517 1517 1517 1516 1515 1517 1518 1521 1523 1522 1520 1519 1520 1520 1521 1521 1524 1527 1529 1530 1531 1532 1533
1535 1538 1539 1541 1547 1546 1542 1542 1543 1543 1543 1542 1541 1540 1542 1540 1538 1535 1532 1531 1529 1527 1525 1523 1521 1520 1519 1517 1517 1513 1516 1516 1517 1516 1519 1516 1520 1519 1517 1518 1518 1518 1522 1525 1527 1529 1530 1531 1532
1536 1545 1550 1546 1544 1548 1544 1544 1543 1542 1541 1542 1542 1541 1542 1539 1535 1532 1531 1531 1529 1528 1525 1523 1521 1521 1519 1518 1516 1514 1514 1516 1516 1516 1517 1518 1513 1516 1515 1518 1517 1518 1521 1523 1525 1527 1529 1529 1530
1538 1549 1546 1544 1545 1547 1544 1544 1545 1544 1543 1542 1540 1538 1536 1535 1535 1533 1530 1528 1527 1527 1525 1522 1520 1520 1518 1518 1517 1513 1515 1512 1515 1516 1516 1518 1517 1508 1513 1515 1517 1519 1520 1521 1523 1525 1528 1528 1529
1542 1546 1543 1545 1543 1544 1546 1546 1546 1545 1543 1543 1542 1540 1538 1536 1535 1534 1532 1529 1527 1526 1525 1523 1521 1519 1517 1516 1515 1516 1516 1514 1513 1510 1516 1515 1512 1512 1512 1511 1518 1519 1520 1522 1524 1525 1526 1527 1528
1545 1544 1543 1544 1546 1547 1547 1545 1545 1544 1543 1541 1540 1539 1539 1537 1535 1532 1531 1529 1526 1524 1522 1520 1519 1518 1516 1516 1514 1513 1512 1511 1509 1508 1508 1508 1506 1511 1518 1515 1515 1520 1521 1521 1523 1524 1525 1526 1526
1543 1544 1545 1544 1544 1545 1545 1544 1544 1541 1541 1540 1539 1538 1538 1537 1535 1532 1530 1528 1525 1523 1521 1519 1516 1515 1514 1513 1513 1511 1509 1509 1509 1509 1508 1505 1504 1509 1511 1513 1514 1519 1521 1520 1522 1523 1524 1525 1526
1544 1542 1541 1541 1541 1542 1542 1543 1544 1539 1538 1538 1538 1538 1537 1535 1533 1531 1528 1525 1522 1519 1518 1516 1515 1512 1511 1511 1510 1510 1508 1508 1510 1509 1510 1506 1507 1508 1510 1513 1513 1517 1519 1520 1521 1524 1524 1525 1527
1543 1543 1539 1537 1538 1542 1542 1541 1541 1537 1537 1537 1538 1537 1535 1534 1532 1530 1528 1523 1519 1517 1514 1512 1511 1509 1508 1508 1508 1506 1508 1507 1508 1509 1509 1507 1510 1510 1510 1510 1514 1513 1513 1517 1520 1523 1524 1525 1526
1546 1546 1550 1539 1538 1542 1543 1548 1537 1537 1537 1536 1536 1535 1534 1533 1531 1529 1526 1523 1518 1514 1511 1510 1508 1507 1505 1505 1505 1505 1504 1506 1506 1505 1506 1505 1509 1509 1507 1510 1512 1513 1513 1514 1519 1523 1525 1525 1524
1550 1555 1548 1544 1541 1542 1544 1543 1537 1536 1536 1535 1535 1534 1532 1532 1531 1529 1526 1522 1517 1514 1510 1507 1505 1505 1504 1504 1503 1503 1502 1503 1505 1504 1503 1505 1506 1508 1507 1507 1511 1511 1511 1514 1517 1522 1525 1524 1524
1554 1554 1553 1551 1545 1543 1543 1541 1536 1534 1534 1533 1533 1532 1530 1529 1529 1528 1526 1522 1517 1513 1510 1506 1503 1502 1504 1503 1503 1502 1501 1501 1502 1502 1502 1504 1504 1506 1506 1507 1509 1508 1510 1513 1514 1518 1522 1524 1525
1554 1554 1557 1551 1543 1543 1543 1543 1536 1528 1530 1529 1532 1532 1530 1530 1530 1529 1527 1522 1518 1513 1510 1506 1504 1502 1502 1502 1501 1502 1501 1500 1499 1499 1500 1501 1502 1504 1506 1505 1507 1507 1509 1514 1513 1514 1518 1522 1523
1557 1557 1558 1548 1543 1544 1540 1538 1530 1526 1525 1524 1530 1531 1531 1532 1530 1529 1527 1523 1518 1514 1510 1508 1506 1503 1501 1501 1501 1501 1501 1500 1498 1498 1499 1500 1500 1501 1503 1503 1504 1505 1507 1511 1512 1514 1514 1517 1521
1557 1558 1559 1558 1550 1546 1544 1543 1532 1527 1529 1530 1531 1531 1531 1531 1531 1530 1528 1524 1520 1516 1512 1510 1508 1505 1502 1500 1500 1500 1500 1500 1499 1498 1498 1498 1499 1499 1499 1501 1502 1503 1504 1508 1513 1513 1514 1517 1519
1560 1558 1556 1556 1559 1565 1553 1568 1541 1529 1533 1533 1530 1529 1529 1530 1531 1531 1529 1526 1523 1519 1515 1512 1510 1507 1503 1501 1500 1499 1499 1499 1498 1498 1497 1497 1497 1498 1497 1499 1500 1502 1503 1505 1512 1513 1514 1516 1516
1558 1557 1556 1554 1557 1561 1558 1570 1546 1531 1532 1533 1531 1528 1529 1530 1530 1531 1530 1529 1526 1522 1519 1515 1512 1509 1505 1502 1500 1500 1500 1498 1497 1497 1496 1495 1495 1496 1497 1498 1499 1501 1502 1505 1508 1511 1509 1513 1515
1556 1555 1556 1555 1561 1598 1560 1560 1552 1540 1533 1530 1529 1530 1529 1530 1531 1531 1531 1530 1528 1526 1522 1519 1516 1511 1508 1505 1503 1501 1500 1499 1497 1496 1496 1495 1495 1495 1496 1495 1498 1500 1502 1503 1506 1508 1508 1511 1514
1557 1565 1599 1593 1598 1588 1551 1555 1541 1535 1534 1533 1533 1533 1532 1533 1532 1533 1532 1531 1529 1528 1525 1522 1519 1516 1513 1510 1506 1504 1502 1501 1499 1496 1496 1496 1495 1495 1494 1495 1497 1498 1500 1502 1504 1505 1508 1510 1511
1560 1567 1596 1611 1596 1570 1551 1560 1541 1535 1535 1533 1531 1534 1537 1536 1535 1534 1532 1531 1530 1528 1526 1524 1522 1519 1517 1514 1510 1508 1505 1503 1501 1499 1498 1497 1497 1496 1495 1495 1497 1499 1500 1501 1503 1504 1507 1508 1509
1563 1573 1565 1591 1597 1592 1561 1546 1538 1534 1535 1533 1534 1536 1536 1536 1535 1534 1533 1532 1530 1529 1527 1525 1523 1522 1519 1517 1514 1511 1508 1506 1505 1503 1501 1500 1500 1497 1495 1495 1497 1498 1499 1500 1501 1502 1503 1506 1505
1563 1565 1584 1594 1613 1612 1567 1549 1547 1537 1535 1535 1535 1534 1535 1534 1533 1532 1532 1531 1530 1529 1527 1526 1524 1522 1521 1519 1517 1514 1511 1509 1506 1505 1504 1502 1500 1498 1496 1495 1495 1496 1497 1498 1499 1499 1501 1501 1502
1572 1578 1576 1576 1579 1598 1596 1549 1537 1538 1540 1539 1536 1534 1531 1529 1529 1529 1530 1530 1529 1528 1527 1526 1525 1523 1522 1520 1518 1515 1513 1511 1508 1505 1504 1502 1501 1500 1498 1497 1496 1495 1495 1495 1496 1497 1498 1499 1499
1563 1566 1570 1588 1580 1574 1575 1539 1536 1538 1539 1538 1538 1535 1530 1527 1527 1527 1528 1528 1527 1527 1526 1525 1524 1523 1522 1519 1517 1516 1514 1512 1510 1507 1504 1503 1501 1499 1498 1497 1495 1494 1493 1493 1493 1494 1495 1496 1497